Weather History for Newport, AR

Change the Weather History Date:

Tuesday, February 12, 2013

  Actual Average (KJBR) Record (KJBR)
Temperature  
Mean Temperature 40 °F 41 °F  
Max Temperature 45 °F 50 °F 75 °F (1962)
Min Temperature 34 °F 31 °F 4 °F (1988)
Degree Days  
Heating Degree Days 26 24  
Month to date heating degree days 305  
Since 1 July heating degree days 2601  
Cooling Degree Days 0 0  
Month to date cooling degree days 0  
Year to date cooling degree days 0  
Moisture  
Dew Point 38 °F    
Average Humidity 89    
Maximum Humidity 100    
Minimum Humidity 73    
Precipitation  
Precipitation 0.17 in 0.13 in 2.41 in (1950)
Month to date precipitation 1.56  
Year to date precipitation 4.99  
Snow  
Snow 0.00 in - 4.00 in (1982)
Month to date snowfall  
Since 1 July snowfall  
Snow Depth -    
Sea Level Pressure  
Sea Level Pressure 30.03 in    
Wind  
Wind Speed 7 mph (NNE)    
Max Wind Speed 15 mph    
Max Gust Speed 21 mph    
Visibility 10 miles    
Events Rain    
T = Trace of Precipitation, MM = Missing Value Source: NWS Daily Summary

Daily Weather History Graph

Daily Weather History Graph

Search for Another Location

Airport:

Trip Planner

Search our weather history database for the weather conditions in past years. The results will help you decide how hot, cold, wet, or windy it might be!

Date:

Astronomy

Feb. 12, 2013 Rise Set
Actual Time 6:54 AM CST 5:43 PM CST
Civil Twilight 6:28 AM CST 6:10 PM CST
Nautical Twilight 5:58 AM CST 6:40 PM CST
Astronomical Twilight 5:28 AM CST 7:09 PM CST
Moon 7:59 AM CST (2/12) 8:36 PM CST (2/12)
Length of Visible Light 11h 41m
Length of Day
10h 49m
Waxing Crescent, 7% of the Moon is Illuminated
Feb 12
Waxing Crescent
Feb 17
First Quarter
Feb 25
Full
Mar 4
Last Quarter
Mar 11
New

Hourly Weather History & Observations

Time (CST) Temp. Windchill Dew Point Humidity Pressure Visibility Wind Dir Wind Speed Gust Speed Precip Events Conditions
12:56 AM 39.9 °F - 37.9 °F 93% 30.15 in 10.0 mi Calm Calm - N/A   Clear
1:56 AM 37.9 °F 30.5 °F 36.9 °F 96% 30.18 in 10.0 mi SSW 11.5 mph - N/A   Clear
2:56 AM 38.8 °F - 36.0 °F 89% 30.16 in 10.0 mi Calm Calm - N/A   Clear
3:56 AM 34.9 °F 29.0 °F 34.0 °F 97% 30.14 in 10.0 mi NNE 6.9 mph - N/A   Clear
4:56 AM 36.0 °F 29.6 °F 34.9 °F 96% 30.11 in 10.0 mi NNE 8.1 mph - N/A   Clear
6:56 AM 34.0 °F 25.5 °F 32.9 °F 96% 30.13 in 10.0 mi NNE 11.5 mph - N/A   Clear
7:56 AM 37.9 °F 34.4 °F 34.9 °F 89% 30.17 in 10.0 mi NW 4.6 mph - N/A   Clear
8:56 AM 39.9 °F 33.9 °F 36.0 °F 86% 30.09 in 10.0 mi NE 9.2 mph - N/A   Clear
9:56 AM 41.0 °F 33.1 °F 36.0 °F 82% 30.09 in 10.0 mi NNE 15.0 mph - N/A   Clear
10:56 AM 43.0 °F - 36.9 °F 79% 30.12 in 10.0 mi North - - N/A   Scattered Clouds
11:56 AM 43.9 °F - 36.9 °F 76% 30.12 in 10.0 mi Calm Calm - N/A   Overcast
12:56 PM 45.0 °F - 37.9 °F 76% 30.09 in 10.0 mi North - - N/A   Overcast
1:56 PM 45.0 °F - 36.9 °F 73% 29.99 in 10.0 mi North - - 0.00 in   Overcast
2:56 PM 43.9 °F 42.3 °F 38.8 °F 82% 29.99 in 10.0 mi East 3.5 mph - 0.00 in Rain Light Rain
3:56 PM 43.0 °F 37.7 °F 39.9 °F 89% 29.98 in 10.0 mi NNE 9.2 mph - 0.02 in Rain Light Rain
4:56 PM 43.0 °F 37.7 °F 41.0 °F 93% 29.96 in 10.0 mi North 9.2 mph - 0.05 in Rain Light Rain
5:56 PM 43.0 °F 36.0 °F 41.0 °F 93% 29.92 in 10.0 mi NNE 13.8 mph - 0.01 in Rain Light Rain
6:56 PM 41.9 °F 35.0 °F 38.8 °F 89% 29.91 in 10.0 mi NE 12.7 mph - 0.01 in Rain Light Rain
7:56 PM 41.9 °F 35.4 °F 39.9 °F 93% 29.89 in 10.0 mi NNE 11.5 mph - 0.00 in   Overcast
8:56 PM 41.9 °F 35.4 °F 38.8 °F 89% 29.90 in 10.0 mi NNE 11.5 mph - 0.00 in   Overcast
9:56 PM 41.9 °F 36.3 °F 38.8 °F 89% 29.91 in 10.0 mi North 9.2 mph - 0.00 in Rain Light Rain
10:56 PM 41.0 °F 33.1 °F 39.9 °F 96% 29.90 in 10.0 mi North 15.0 mph 20.7 mph 0.02 in Rain Light Rain
11:19 PM 41.0 °F 34.7 °F 39.2 °F 93% 29.89 in 7.0 mi North 10.4 mph - 0.02 in Rain Light Rain
11:56 PM 39.9 °F 32.1 °F 39.9 °F 100% 29.89 in 8.0 mi North 13.8 mph - 0.06 in Rain Light Rain